Wind_Speed
71 71 71 68 63 61 55 56 53 55 47 44 37 32 31 33 25 21 16 12 8 10 2 4 8 13 17 22 21 25 26 28 29 27 29 30 31 32 34 33 31 29 28 28
75 77 75 71 67 64 60 56 60 57 59 53 46 36 34 34 26 25 21 17 12 12 5 8 7 9 12 19 18 19 22 23 26 26 28 28 27 29 31 33 32 33 30 29
82 80 77 74 71 68 65 60 60 61 56 56 50 42 37 36 32 30 28 18 17 16 9 9 4 5 11 15 16 15 17 19 21 23 25 26 25 27 28 29 31 33 32 32
84 80 78 77 75 72 69 65 60 60 59 56 46 44 45 41 39 32 33 25 20 19 14 11 4 2 8 12 12 16 13 14 16 17 22 25 24 23 25 26 27 31 32 31
81 83 82 79 78 77 73 70 64 57 61 54 47 45 47 46 47 40 38 34 28 20 20 16 6 3 3 11 13 13 13 13 12 14 15 19 18 21 22 25 24 27 29 28
79 84 85 83 82 80 77 72 67 63 59 63 61 49 45 45 48 43 40 37 30 28 27 24 19 18 19 23 17 12 11 12 12 9 11 14 15 15 20 21 24 20 24 25
78 80 84 87 85 82 78 74 70 67 63 65 69 68 60 50 46 44 44 42 37 34 33 34 26 24 29 25 17 12 11 11 12 9 8 10 11 11 12 13 17 20 16 21
80 79 80 86 87 85 82 78 76 73 71 70 69 69 66 64 59 53 44 47 43 42 41 40 29 28 25 18 17 13 13 12 11 9 6 4 6 7 11 11 12 14 16 14
87 82 81 83 91 90 86 80 81 79 78 73 69 70 59 68 67 60 54 51 47 48 47 40 37 32 22 19 18 16 15 18 12 9 8 8 4 4 10 10 8 11 11 12
91 89 84 84 88 91 89 89 84 81 80 76 72 72 69 66 70 64 61 55 61 56 49 45 44 36 30 29 23 24 20 23 15 11 8 7 6 2 6 4 11 16 14 10
90 94 91 87 84 88 89 88 87 83 83 80 78 75 74 75 70 72 70 65 54 51 51 50 46 42 35 44 43 28 26 26 19 14 12 9 8 4 5 5 4 4 11 10
90 93 95 90 86 86 87 90 91 88 84 84 82 80 77 76 81 76 70 62 54 57 56 55 53 47 44 44 44 34 29 30 25 18 18 14 14 12 10 7 9 6 2 6
88 94 96 95 90 89 86 87 88 89 87 86 86 83 82 80 80 82 79 77 64 60 60 56 57 52 52 50 43 39 36 32 33 23 22 17 16 17 20 15 15 13 11 9
78 91 97 97 93 89 88 87 86 88 89 88 85 83 84 84 81 80 78 72 68 69 63 65 48 51 58 53 53 49 43 38 40 36 30 24 19 16 20 18 16 13 14 12
73 83 94 96 97 93 91 91 88 87 89 90 88 84 83 84 84 81 79 79 74 73 72 64 55 61 48 51 49 51 51 41 50 44 36 33 28 25 23 24 21 19 17 14
68 77 87 93 98 95 92 93 92 89 87 90 90 86 85 84 83 84 82 81 82 84 78 72 69 52 59 51 57 55 56 48 52 45 40 38 38 38 35 33 31 28 24 22
66 72 83 90 97 97 94 93 93 91 88 89 91 91 88 87 84 82 85 83 79 80 78 75 69 65 61 62 60 60 63 60 55 57 51 47 46 46 45 43 42 36 32 31
71 70 75 88 93 98 94 94 94 93 91 88 89 91 90 89 87 85 82 84 86 83 87 80 77 72 66 68 65 67 65 66 61 63 57 53 52 51 51 49 51 49 43 40
73 67 68 77 92 96 96 96 94 93 92 91 89 89 89 89 89 89 89 87 88 89 88 92 92 84 77 73 74 77 77 76 69 71 70 63 57 54 59 59 58 57 56 49
76 71 70 73 84 92 97 96 96 95 96 95 92 90 88 86 89 94 94 91 92 91 90 92 92 95 96 96 91 81 78 79 76 71 72 72 66 61 63 66 64 60 62 61
82 78 74 72 74 81 91 97 97 97 97 96 96 92 89 88 88 90 93 95 95 96 95 94 92 93 93 92 92 94 92 87 86 81 75 72 74 73 72 71 68 69 64 64
78 79 79 76 75 74 81 90 96 99 100 97 98 96 93 92 90 90 92 93 97 99 100 99 96 93 91 91 92 92 91 93 99 94 90 88 80 72 71 71 71 75 71 68
74 81 81 79 78 76 76 80 88 95 98 99 98 95 97 96 94 95 96 94 95 96 99 101 100 98 94 91 90 90 93 93 93 96 94 92 92 94 83 81 82 79 78 70
63 73 83 82 82 79 79 77 82 88 94 98 99 98 99 97 99 98 100 98 99 100 100 99 97 97 97 98 98 96 94 95 94 97 96 92 92 93 88 93 90 89 84 81
42 55 71 81 87 84 81 79 79 81 86 93 98 100 99 100 100 102 103 102 101 104 104 102 100 97 97 97 99 102 101 100 98 97 97 97 94 94 94 93 96 95 98 93
26 35 43 56 73 83 88 87 84 81 82 85 89 93 97 101 102 103 104 103 103 105 106 106 105 103 101 99 98 101 103 104 104 103 102 103 102 102 102 100 104 103 105 104
Wind_Direction
215 215 215 213 211 211 209 212 212 213 209 203 204 214 216 223 227 226 225 220 215 206 205 318 348 9 7 15 26 34 27 37 45 53 52 52 50 53 49 52 55 57 63 64
214 216 215 213 211 212 209 210 213 215 215 219 223 213 216 222 215 225 216 225 220 226 244 293 312 354 359 8 14 31 30 27 39 48 55 56 54 55 58 53 53 56 58 61
214 213 213 213 213 212 212 209 212 216 215 221 225 225 216 214 215 218 223 221 230 222 228 269 252 353 21 13 355 10 26 24 32 39 49 52 53 51 61 63 57 56 60 64
215 213 213 214 213 214 213 211 212 213 218 219 214 214 208 210 223 213 224 221 241 223 218 230 205 133 19 0 342 340 8 18 20 31 48 52 51 50 49 62 65 60 59 63
216 214 213 214 214 215 214 213 212 211 217 217 205 208 207 213 215 217 218 228 231 228 222 226 237 307 316 333 328 323 340 359 9 15 37 62 52 53 55 57 64 66 64 62
217 216 214 214 215 214 215 213 211 211 211 209 208 210 210 205 215 206 214 220 225 233 230 228 235 266 284 291 307 296 317 334 341 359 17 45 54 42 55 59 54 64 71 69
218 216 216 216 215 215 214 215 213 212 212 216 220 217 216 214 215 221 218 221 225 239 237 241 244 266 282 293 288 284 286 307 321 343 17 18 38 34 61 65 59 51 68 64
217 216 216 217 216 216 215 214 213 213 213 213 214 221 220 219 223 228 227 225 228 235 240 245 246 256 271 277 273 264 273 268 286 320 329 342 5 13 36 49 58 43 54 62
216 216 215 217 216 216 216 215 215 213 215 215 214 222 216 222 223 228 230 224 221 236 241 242 246 254 253 245 258 249 273 256 262 285 291 300 279 325 27 40 44 58 57 56
216 217 216 216 217 216 215 215 214 216 217 217 215 217 218 218 224 223 225 228 226 232 235 239 245 244 243 252 251 256 259 250 246 262 262 253 279 327 90 90 69 59 58 48
215 217 217 217 217 218 216 216 216 215 217 217 218 218 216 215 221 223 224 224 224 226 231 236 246 240 242 253 261 245 254 231 243 251 243 252 240 190 154 131 185 34 44 37
217 217 217 217 218 218 218 216 215 214 216 218 219 220 219 218 217 221 221 220 217 229 234 243 243 236 245 253 249 248 243 236 229 247 236 232 238 233 201 178 188 229 146 282
217 216 217 216 216 218 219 218 217 216 215 218 218 220 222 222 220 222 224 224 224 227 232 227 233 238 247 240 244 248 245 232 227 240 228 228 241 237 226 209 196 197 220 226
215 216 215 216 216 217 219 219 218 218 216 217 219 220 223 225 225 224 222 223 221 218 221 224 233 238 245 245 244 245 233 233 227 239 236 238 225 220 226 224 196 203 220 234
214 214 214 215 216 217 217 219 219 218 218 217 218 219 222 224 227 227 226 221 216 219 226 227 234 235 235 236 236 236 236 239 232 233 236 237 223 228 228 225 219 216 223 223
216 216 213 215 216 217 218 220 220 219 218 219 218 219 222 224 225 227 228 227 223 222 227 234 229 226 224 228 222 234 232 230 234 226 231 240 239 235 239 235 225 227 229 231
218 216 216 215 216 217 217 219 221 221 221 220 220 221 222 224 225 226 228 229 230 227 222 221 221 217 227 226 230 231 231 229 234 229 235 236 242 244 242 237 233 233 230 234
219 217 217 217 216 218 218 219 220 222 222 222 223 223 223 225 227 229 229 230 230 228 221 215 217 215 218 224 226 227 234 237 235 228 235 237 233 243 245 243 238 243 244 237
220 222 221 220 219 216 218 218 219 221 223 224 224 224 224 225 227 229 230 229 230 230 228 225 222 220 220 223 230 235 240 245 240 235 236 237 238 241 248 249 247 245 247 250
220 223 224 225 223 221 218 220 220 220 221 222 225 226 227 226 227 228 230 231 232 232 232 231 230 231 230 232 231 231 234 239 239 239 237 237 239 242 248 250 250 250 245 247
220 221 226 226 229 224 225 222 222 222 222 223 224 225 227 228 229 231 231 232 234 235 235 234 234 234 235 236 237 238 236 237 238 238 239 240 241 242 246 249 248 250 253 257
219 220 223 226 227 228 225 227 228 226 226 225 225 226 228 229 230 231 233 235 236 236 236 236 236 237 237 239 241 242 242 239 239 239 241 244 245 238 240 247 251 247 248 253
221 221 222 227 229 229 227 227 228 229 230 229 228 229 229 229 231 233 234 235 237 239 239 240 240 239 239 240 241 241 243 243 244 245 245 246 249 244 239 242 243 247 249 248
225 226 226 228 229 231 232 228 227 229 231 232 231 230 229 231 233 234 236 235 238 240 241 242 242 241 240 241 241 242 242 244 243 244 248 248 246 247 247 241 244 245 245 245
234 231 230 230 231 232 233 234 231 229 230 232 233 233 233 231 233 236 237 237 239 241 242 243 244 244 243 242 242 243 243 244 246 248 248 247 247 246 247 245 244 246 248 249
240 241 238 237 235 235 235 234 235 232 232 233 233 236 236 235 236 236 238 240 241 242 243 245 245 245 245 244 243 244 244 243 243 244 245 248 249 247 247 247 246 246 248 249
Height
10884 10893 10899 10910 10924 10936 10944 10953 10959 10966 10971 10976 10979 10986 10991 10995 10999 11003 11006 11009 11011 11012 11015 11015 11014 11014 11013 11011 11008 11007 11005 11003 11002 10998 10995 10993 10991 10988 10984 10981 10979 10977 10975 10972
10867 10873 10886 10903 10915 10924 10935 10943 10948 10956 10963 10969 10976 10982 10988 10990 10997 11000 11003 11007 11010 11011 11013 11015 11014 11013 11014 11012 11010 11009 11009 11007 11006 11004 10999 10997 10996 10995 10991 10987 10985 10983 10981 10979
10844 10857 10877 10890 10903 10912 10922 10931 10939 10948 10957 10963 10970 10978 10983 10986 10991 10996 11000 11004 11008 11010 11011 11014 11014 11013 11014 11014 11012 11011 11011 11010 11010 11008 11004 11001 11000 10999 10997 10994 10992 10990 10987 10985
10832 10854 10866 10878 10891 10900 10909 10921 10928 10939 10949 10958 10964 10970 10975 10982 10986 10994 10997 11000 11004 11007 11009 11012 11012 11012 11013 11015 11014 11013 11013 11012 11012 11012 11009 11006 11005 11002 11001 10999 10999 10996 10993 10993
10824 10839 10852 10865 10876 10886 10897 10908 10921 10933 10941 10950 10957 10962 10968 10975 10981 10987 10991 10995 10999 11004 11006 11008 11009 11011 11013 11015 11016 11015 11014 11014 11014 11014 11012 11011 11009 11007 11005 11003 11002 11001 10998 10998
10811 10825 10839 10849 10860 10872 10886 10900 10911 10923 10935 10941 10948 10954 10960 10969 10974 10978 10985 10990 10994 10998 11002 11004 11007 11008 11012 11013 11015 11015 11015 11014 11015 11016 11015 11014 11012 11011 11009 11007 11007 11006 11005 11004
10799 10812 10826 10836 10848 10862 10876 10892 10904 10914 10924 10929 10937 10945 10953 10962 10965 10971 10978 10982 10987 10991 10995 10998 11002 11006 11008 11011 11014 11014 11014 11014 11015 11016 11015 11014 11015 11015 11012 11011 11009 11010 11008 11007
10782 10798 10812 10824 10835 10849 10862 10876 10889 10900 10907 10913 10924 10933 10943 10952 10958 10964 10970 10975 10981 10985 10988 10993 10997 11002 11006 11008 11010 11013 11013 11013 11013 11015 11015 11014 11016 11016 11013 11012 11011 11011 11010 11010
10767 10779 10794 10805 10816 10831 10848 10866 10873 10884 10890 10904 10920 10923 10936 10942 10950 10956 10963 10967 10972 10977 10982 10988 10992 10996 11001 11004 11008 11009 11011 11012 11012 11013 11013 11013 11014 11015 11015 11014 11013 11011 11011 11011
10750 10763 10776 10786 10800 10816 10834 10843 10860 10874 10882 10895 10907 10913 10925 10931 10937 10946 10952 10958 10965 10969 10976 10980 10985 10990 10994 10999 11002 11006 11008 11009 11010 11010 11012 11012 11013 11014 11015 11015 11015 11013 11012 11012
10734 10746 10760 10773 10790 10804 10818 10834 10850 10862 10870 10882 10892 10900 10910 10918 10922 10932 10941 10948 10955 10961 10966 10972 10977 10981 10985 10991 10996 11000 11004 11004 11007 11008 11010 11010 11011 11012 11012 11013 11015 11014 11014 11014
10718 10731 10744 10760 10777 10788 10802 10816 10829 10846 10857 10868 10878 10885 10896 10903 10910 10919 10929 10937 10945 10951 10957 10963 10967 10973 10978 10983 10987 10992 10997 11000 11001 11004 11006 11006 11007 11009 11010 11010 11012 11014 11013 11015
10699 10713 10726 10745 10760 10772 10787 10802 10818 10832 10843 10853 10862 10870 10881 10887 10896 10905 10916 10925 10934 10940 10948 10953 10957 10962 10967 10975 10978 10983 10988 10992 10995 10998 11002 11001 11003 11004 11006 11006 11007 11010 11011 11012
10685 10696 10711 10727 10743 10758 10772 10787 10801 10816 10829 10840 10851 10858 10865 10871 10880 10891 10902 10912 10922 10929 10935 10941 10945 10950 10957 10964 10969 10973 10979 10984 10987 10992 10997 10997 10998 10999 11002 11004 11003 11005 11007 11009
10670 10681 10695 10712 10727 10739 10753 10766 10782 10796 10811 10824 10834 10842 10849 10856 10865 10877 10890 10899 10909 10915 10921 10926 10931 10941 10945 10953 10956 10961 10968 10975 10979 10984 10988 10992 10992 10995 10997 10999 11001 11000 11003 11003
10659 10669 10682 10698 10711 10725 10738 10750 10766 10779 10793 10808 10819 10828 10833 10841 10852 10861 10871 10881 10892 10901 10910 10917 10926 10930 10936 10940 10945 10947 10955 10962 10968 10973 10978 10983 10985 10987 10991 10994 10994 10995 10997 10998
10648 10657 10668 10682 10695 10709 10721 10735 10750 10766 10778 10790 10802 10811 10819 10828 10837 10844 10854 10866 10874 10885 10894 10904 10910 10917 10921 10929 10932 10935 10939 10947 10957 10962 10965 10970 10975 10978 10981 10984 10987 10988 10989 10991
10632 10644 10655 10667 10682 10692 10709 10720 10735 10747 10761 10776 10785 10795 10804 10814 10822 10831 10839 10847 10855 10863 10875 10886 10892 10900 10907 10914 10920 10923 10925 10930 10943 10949 10951 10958 10961 10966 10970 10973 10976 10979 10982 10981
10624 10636 10646 10656 10663 10678 10690 10703 10717 10733 10749 10758 10767 10777 10787 10798 10805 10812 10814 10824 10832 10843 10855 10867 10876 10884 10890 10897 10904 10909 10914 10918 10927 10936 10940 10945 10950 10953 10957 10959 10962 10967 10970 10974
10614 10624 10634 10641 10650 10666 10675 10686 10701 10713 10722 10736 10748 10761 10773 10784 10787 10787 10796 10807 10815 10823 10833 10845 10854 10863 10872 10878 10886 10894 10900 10904 10909 10917 10923 10931 10935 10941 10944 10947 10948 10951 10956 10958
10600 10611 10620 10629 10639 10654 10665 10673 10684 10694 10707 10719 10729 10743 10754 10761 10766 10773 10781 10788 10798 10804 10813 10822 10834 10843 10851 10858 10866 10874 10883 10888 10891 10899 10907 10913 10919 10925 10931 10934 10935 10938 10940 10943
10591 10599 10606 10615 10624 10635 10648 10658 10671 10680 10688 10701 10710 10725 10735 10742 10747 10754 10761 10769 10775 10782 10788 10799 10813 10824 10834 10841 10850 10856 10863 10870 10873 10881 10889 10896 10903 10908 10914 10919 10921 10923 10927 10928
10578 10586 10594 10603 10611 10620 10630 10643 10653 10662 10672 10682 10695 10706 10715 10723 10728 10734 10740 10751 10756 10761 10767 10779 10795 10805 10816 10823 10827 10833 10839 10847 10854 10858 10867 10875 10881 10887 10894 10899 10905 10908 10911 10914
10567 10575 10583 10588 10595 10603 10612 10624 10634 10643 10653 10661 10672 10683 10695 10704 10706 10713 10720 10728 10734 10739 10747 10758 10771 10783 10793 10799 10804 10810 10816 10822 10831 10837 10843 10850 10857 10863 10868 10877 10881 10886 10892 10896
10558 10563 10568 10574 10581 10589 10598 10606 10617 10625 10633 10640 10650 10660 10672 10682 10684 10690 10698 10707 10715 10716 10726 10735 10746 10759 10769 10777 10782 10787 10794 10801 10808 10814 10820 10826 10834 10839 10845 10851 10857 10862 10866 10871
10550 10552 10555 10560 10567 10572 10580 10587 10596 10607 10616 10621 10630 10638 10649 10659 10663 10668 10676 10685 10691 10696 10704 10712 10720 10730 10739 10750 10759 10765 10771 10778 10784 10790 10796 10800 10807 10813 10820 10825 10831 10836 10841 10846